| time (UTC) | temp F | wind direction | speed MPH | gust MPH | rain 1hr in | rain 24hr in | rain mn in | humidity % | barometer mb |
| 20260505183003 | 63 | 360 | 11.0 | 19.0 | 0.00 | 0.00 | 0.00 | 58 | 1003.4 |
| 20260505181503 | 63 | 360 | 9.0 | 21.0 | 0.00 | 0.00 | 0.00 | 58 | 1003.3 |
| 20260505180107 | 63 | 360 | 12.0 | 22.0 | 0.00 | 0.00 | 0.00 | 58 | 1003.0 |
| 20260505174610 | 63 | 257 | 8.0 | 22.0 | 0.00 | 0.00 | 0.00 | 61 | 1002.6 |
| 20260505173054 | 64 | 360 | 10.0 | 22.0 | 0.00 | 0.00 | 0.00 | 60 | 1002.6 |
| 20260505171553 | 64 | 273 | 12.0 | 19.0 | 0.00 | 0.00 | 0.00 | 61 | 1002.3 |
| 20260505170051 | 65 | 261 | 8.0 | 17.0 | 0.00 | 0.00 | 0.00 | 62 | 1002.3 |
| 20260505164552 | 65 | 360 | 13.0 | 21.0 | 0.00 | 0.00 | 0.00 | 63 | 1002.3 |
| 20260505163018 | 63 | 311 | 9.0 | 19.0 | 0.00 | 0.00 | 0.00 | 67 | 1002.2 |
| 20260505161517 | 63 | 360 | 9.0 | 20.0 | 0.00 | 0.00 | 0.00 | 68 | 1002.3 |
| 20260505153011 | 64 | 360 | 8.0 | 21.0 | 0.00 | 0.00 | 0.00 | 70 | 1001.0 |
| 20260505151511 | 65 | 360 | 12.0 | 23.0 | 0.00 | 0.00 | 0.00 | 69 | 1001.1 |
| 20260505124530 | 61 | 360 | 13.0 | 21.0 | 0.00 | 0.00 | 0.00 | 73 | 998.8 |
| 20260505123033 | 61 | 360 | 10.0 | 18.0 | 0.00 | 0.00 | 0.00 | 73 | 998.9 |
| 20260505121523 | 61 | 192 | 10.0 | 19.0 | 0.00 | 0.00 | 0.00 | 73 | 998.7 |
| 20260505120023 | 61 | 200 | 9.0 | 18.0 | 0.00 | 0.00 | 0.00 | 73 | 998.7 |
| 20260505114513 | 61 | 194 | 9.0 | 20.0 | 0.00 | 0.00 | 0.00 | 73 | 998.6 |
| 20260505113010 | 60 | 189 | 8.0 | 18.0 | 0.00 | 0.00 | 0.00 | 73 | 998.3 |
| 20260505111516 | 60 | 360 | 9.0 | 18.0 | 0.00 | 0.00 | 0.00 | 74 | 998.2 |
| 20260505101606 | 58 | 360 | 9.0 | 15.0 | 0.00 | 0.00 | 0.00 | 80 | 997.9 |
| 20260505100100 | 58 | 199 | 8.0 | 15.0 | 0.00 | 0.00 | 0.00 | 80 | 997.3 |
| 20260505094546 | 58 | 195 | 8.0 | 15.0 | 0.00 | 0.00 | 0.00 | 80 | 997.4 |
| 20260505093046 | 57 | 360 | 9.0 | 15.0 | 0.00 | 0.00 | 0.00 | 80 | 997.4 |
| 20260505091542 | 57 | 182 | 8.0 | 17.0 | 0.00 | 0.00 | 0.00 | 80 | 997.3 |
| 20260505090010 | 57 | 200 | 7.0 | 17.0 | 0.00 | 0.00 | 0.00 | 80 | 997.2 |
| 20260505084507 | 57 | 169 | 8.0 | 17.0 | 0.00 | 0.00 | 0.00 | 80 | 997.0 |
| 20260505083110 | 57 | 153 | 7.0 | 13.0 | 0.00 | 0.00 | 0.00 | 79 | 996.9 |
| 20260505081535 | 58 | 165 | 7.0 | 14.0 | 0.00 | 0.00 | 0.00 | 78 | 997.3 |
| 20260505080044 | 59 | 192 | 6.0 | 12.0 | 0.00 | 0.00 | 0.00 | 78 | 997.6 |
| 20260505080037 | 59 | 196 | 6.0 | 12.0 | 0.00 | 0.00 | 0.00 | 78 | 997.6 |
| 20260505074529 | 60 | 198 | 10.0 | 20.0 | 0.00 | 0.00 | 0.00 | 76 | 997.7 |
| 20260505073036 | 60 | 360 | 9.0 | 18.0 | 0.00 | 0.00 | 0.00 | 77 | 997.4 |
| 20260505071528 | 60 | 166 | 10.0 | 19.0 | 0.00 | 0.00 | 0.00 | 76 | 997.5 |
| 20260505070028 | 61 | 148 | 9.0 | 19.0 | 0.00 | 0.00 | 0.00 | 76 | 997.4 |
| 20260505064523 | 61 | 190 | 8.0 | 17.0 | 0.00 | 0.00 | 0.00 | 75 | 997.6 |
| 20260505063020 | 61 | 198 | 7.0 | 14.0 | 0.00 | 0.00 | 0.00 | 76 | 997.8 |
| 20260505061524 | 61 | 192 | 8.0 | 17.0 | 0.00 | 0.00 | 0.00 | 76 | 998.0 |
| 20260505060015 | 60 | 196 | 10.0 | 17.0 | 0.00 | 0.00 | 0.00 | 77 | 998.2 |
| 20260505054515 | 60 | 360 | 10.0 | 19.0 | 0.00 | 0.00 | 0.00 | 76 | 998.3 |
| 20260505053027 | 60 | 360 | 11.0 | 26.0 | 0.00 | 0.00 | 0.00 | 75 | 998.5 |
| 20260505051528 | 59 | 360 | 9.0 | 19.0 | 0.00 | 0.00 | 0.00 | 77 | 998.4 |
| 20260505041509 | 61 | 360 | 8.0 | 19.0 | 0.00 | 0.00 | 0.00 | 73 | 998.6 |
| 20260505040006 | 61 | 192 | 9.0 | 20.0 | 0.00 | 0.00 | 0.00 | 75 | 998.6 |
| 20260505034504 | 61 | 192 | 11.0 | 19.0 | 0.00 | 0.00 | 0.00 | 74 | 998.5 |
| 20260505033005 | 61 | 175 | 8.0 | 18.0 | 0.00 | 0.00 | 0.00 | 73 | 998.6 |
| 20260505031600 | 61 | 200 | 10.0 | 17.0 | 0.00 | 0.00 | 0.00 | 73 | 999.1 |
| 20260505024559 | 61 | 186 | 7.0 | 13.0 | 0.00 | 0.00 | 0.00 | 72 | 999.0 |
| 20260505023104 | 61 | 172 | 10.0 | 19.0 | 0.00 | 0.00 | 0.00 | 71 | 999.0 |
| 20260505021556 | 61 | 167 | 7.0 | 14.0 | 0.00 | 0.00 | 0.00 | 68 | 999.1 |
| 20260505020057 | 62 | 360 | 8.0 | 16.0 | 0.00 | 0.00 | 0.00 | 65 | 999.1 |
| 20260505014558 | 63 | 360 | 10.0 | 21.0 | 0.00 | 0.00 | 0.00 | 61 | 999.1 |
| 20260505013057 | 64 | 201 | 14.0 | 24.0 | 0.00 | 0.00 | 0.00 | 57 | 999.4 |
| 20260505011531 | 64 | 178 | 8.0 | 14.0 | 0.00 | 0.00 | 0.00 | 55 | 998.8 |
| 20260505010030 | 65 | 360 | 8.0 | 15.0 | 0.00 | 0.00 | 0.00 | 53 | 998.9 |
| 20260505004520 | 65 | 165 | 7.0 | 11.0 | 0.00 | 0.00 | 0.00 | 50 | 998.9 |
| 20260505003020 | 66 | 180 | 5.0 | 10.0 | 0.00 | 0.00 | 0.00 | 47 | 999.0 |
| 20260505001518 | 67 | 190 | 7.0 | 11.0 | 0.00 | 0.00 | 0.00 | 45 | 999.0 |
| 20260505000032 | 68 | 200 | 6.0 | 11.0 | 0.00 | 0.00 | 0.00 | 42 | 999.0 |
| 20260504234511 | 69 | 170 | 10.0 | 16.0 | 0.00 | 0.00 | 0.00 | 41 | 999.2 |
| 20260504233011 | 69 | 360 | 9.0 | 21.0 | 0.00 | 0.00 | 0.00 | 39 | 999.4 |
| 20260504231511 | 70 | 360 | 10.0 | 21.0 | 0.00 | 0.00 | 0.00 | 38 | 999.6 |
| 20260504230012 | 71 | 193 | 12.0 | 21.0 | 0.00 | 0.00 | 0.00 | 36 | 999.7 |
| 20260504224507 | 71 | 360 | 11.0 | 26.0 | 0.00 | 0.00 | 0.00 | 35 | 999.8 |
| 20260504223006 | 72 | 202 | 15.0 | 29.0 | 0.00 | 0.00 | 0.00 | 36 | 999.9 |
| 20260504221548 | 72 | 360 | 14.0 | 29.0 | 0.00 | 0.00 | 0.00 | 38 | 999.8 |
| 20260504220035 | 72 | 186 | 15.0 | 25.0 | 0.00 | 0.00 | 0.00 | 41 | 999.9 |
| 20260504214530 | 72 | 360 | 11.0 | 24.0 | 0.00 | 0.00 | 0.00 | 41 | 999.9 |
| 20260504213033 | 72 | 196 | 14.0 | 25.0 | 0.00 | 0.00 | 0.00 | 41 | 999.9 |
| 20260504211532 | 72 | 191 | 15.0 | 28.0 | 0.00 | 0.00 | 0.00 | 42 | 999.7 |
| 20260504210025 | 72 | 360 | 15.0 | 23.0 | 0.00 | 0.00 | 0.00 | 42 | 999.7 |
| 20260504204525 | 72 | 186 | 13.0 | 26.0 | 0.00 | 0.00 | 0.00 | 43 | 999.6 |
| 20260504203020 | 72 | 360 | 13.0 | 26.0 | 0.00 | 0.00 | 0.00 | 45 | 999.8 |
| 20260504201518 | 72 | 198 | 13.0 | 26.0 | 0.00 | 0.00 | 0.00 | 45 | 1000.0 |
| 20260504200016 | 71 | 360 | 16.0 | 31.0 | 0.00 | 0.00 | 0.00 | 46 | 1000.0 |
| 20260504194511 | 71 | 196 | 14.0 | 26.0 | 0.00 | 0.00 | 0.00 | 47 | 1000.1 |
| 20260504193008 | 71 | 180 | 15.0 | 26.0 | 0.00 | 0.00 | 0.00 | 47 | 1000.4 |
| 20260504191507 | 70 | 360 | 15.0 | 33.0 | 0.00 | 0.00 | 0.00 | 49 | 1000.7 |
| 20260504190106 | 71 | 360 | 18.0 | 30.0 | 0.00 | 0.00 | 0.00 | 47 | 1000.9 |
| 20260504184600 | 69 | 196 | 13.0 | 28.0 | 0.00 | 0.00 | 0.00 | 52 | 1000.9 |
| 20260504184502 | 69 | 187 | 14.0 | 28.0 | 0.00 | 0.00 | 0.00 | 52 | 1001.0 |